TimeIST,TemperatureF,Dew PointF,Humidity,Sea Level PressureIn,VisibilityMPH,Wind Direction,Wind SpeedMPH,Gust SpeedMPH,PrecipitationIn,Events,Conditions,WindDirDegrees,DateUTC
12:00 AM,50.0,50.0,100,30.09,0.4,WSW,3.5,-,N/A,Fog,Shallow Fog,250,2013-01-24 18:30:00
12:30 AM,50.0,50.0,100,30.09,0.4,WSW,3.5,-,N/A,Fog,Shallow Fog,240,2013-01-24 19:00:00
1:00 AM,48.2,48.2,100,30.09,0.4,SW,4.6,-,N/A,Fog,Shallow Fog,230,2013-01-24 19:30:00
1:30 AM,48.2,48.2,100,30.09,0.4,WSW,4.6,-,N/A,Fog,Shallow Fog,240,2013-01-24 20:00:00
2:00 AM,46.4,46.4,100,30.09,0.4,WSW,3.5,-,N/A,Fog,Shallow Fog,250,2013-01-24 20:30:00
2:30 AM,46.4,46.4,100,30.09,0.4,WSW,3.5,-,N/A,Fog,Shallow Fog,250,2013-01-24 21:00:00
3:00 AM,46.4,46.4,100,30.09,0.4,WSW,3.5,-,N/A,Fog,Shallow Fog,240,2013-01-24 21:30:00
3:30 AM,46.4,46.4,100,30.09,0.3,WSW,3.5,-,N/A,Fog,Fog,240,2013-01-24 22:00:00
4:00 AM,44.6,44.6,100,30.09,0.3,SW,4.6,-,N/A,Fog,Fog,230,2013-01-24 22:30:00
4:30 AM,44.6,44.6,100,30.09,0.3,West,4.6,-,N/A,Fog,Fog,260,2013-01-24 23:00:00
5:00 AM,42.8,42.8,100,30.09,0.3,WSW,3.5,-,N/A,Fog,Fog,250,2013-01-24 23:30:00
5:30 AM,42.8,42.8,100,30.09,0.3,West,3.5,-,N/A,Fog,Fog,260,2013-01-25 00:00:00
6:00 AM,42.8,42.8,100,30.09,0.3,WSW,2.3,-,N/A,Fog,Fog,240,2013-01-25 00:30:00
6:30 AM,42.8,42.8,100,30.09,0.4,WSW,2.3,-,N/A,Fog,Shallow Fog,250,2013-01-25 01:00:00
7:00 AM,42.8,42.8,100,30.09,0.4,WSW,3.5,-,N/A,Fog,Shallow Fog,250,2013-01-25 01:30:00
7:30 AM,42.8,42.8,100,30.12,0.4,WSW,4.6,-,N/A,Fog,Shallow Fog,240,2013-01-25 02:00:00
8:00 AM,44.6,44.6,100,30.12,0.4,WSW,4.6,-,N/A,Fog,Shallow Fog,240,2013-01-25 02:30:00
9:00 AM,48.2,48.2,100,30.15,0.6,SW,3.5,-,N/A,Fog,Shallow Fog,230,2013-01-25 03:30:00
9:30 AM,50.0,48.2,94,30.15,0.6,West,4.6,-,N/A,,Mist,270,2013-01-25 04:00:00
10:00 AM,53.6,48.2,82,30.15,0.7,West,4.6,-,N/A,,Mist,270,2013-01-25 04:30:00
10:30 AM,55.4,50.0,82,30.15,0.7,West,5.8,-,N/A,,Mist,280,2013-01-25 05:00:00
11:30 AM,60.8,46.4,59,30.15,1.2,WNW,6.9,-,N/A,,Smoke,290,2013-01-25 06:00:00
12:00 PM,62.6,44.6,52,30.15,1.5,WNW,8.1,-,N/A,,Haze,290,2013-01-25 06:30:00
12:30 PM,64.4,41.0,42,30.12,1.7,NW,11.5,-,N/A,,Haze,310,2013-01-25 07:00:00
1:30 PM,66.2,39.2,37,30.09,2.5,West,11.5,-,N/A,,Haze,270,2013-01-25 08:00:00
2:00 PM,68.0,39.2,35,30.09,2.8,WNW,11.5,-,N/A,,Haze,300,2013-01-25 08:30:00
3:00 PM,68.0,41.0,37,30.09,3.1,WNW,12.7,-,N/A,,Haze,290,2013-01-25 09:30:00
3:30 PM,68.0,41.0,37,30.09,2.8,WNW,10.4,-,N/A,,Haze,300,2013-01-25 10:00:00
4:00 PM,68.0,37.4,33,30.06,2.8,WNW,11.5,-,N/A,,Haze,300,2013-01-25 10:30:00
4:30 PM,66.2,37.4,35,30.06,2.8,WNW,10.4,-,N/A,,Haze,300,2013-01-25 11:00:00
5:30 PM,62.6,41.0,45,30.09,3.1,WNW,8.1,-,N/A,,Haze,290,2013-01-25 12:00:00
6:00 PM,60.8,42.8,52,30.09,2.5,WNW,6.9,-,N/A,,Haze,290,2013-01-25 12:30:00
6:30 PM,59.0,44.6,59,30.09,-9999.0,West,3.5,-,N/A,,Haze,260,2013-01-25 13:00:00
7:00 PM,59.0,46.4,63,30.09,-9999.0,WSW,4.6,-,N/A,,Haze,250,2013-01-25 13:30:00
8:00 PM,55.4,46.4,72,30.09,1.3,West,3.5,-,N/A,,Haze,270,2013-01-25 14:30:00
8:30 PM,55.4,46.4,72,30.09,1.1,Calm,Calm,-,N/A,,Smoke,0,2013-01-25 15:00:00
9:00 PM,53.6,46.4,77,30.09,1.0,Calm,Calm,-,N/A,,Mist,0,2013-01-25 15:30:00
10:30 PM,51.8,48.2,88,30.09,0.7,Calm,Calm,-,N/A,,Mist,0,2013-01-25 17:00:00
11:00 PM,51.8,48.2,88,30.09,0.7,Calm,Calm,-,N/A,,Mist,0,2013-01-25 17:30:00
11:30 PM,51.8,46.4,82,30.09,0.7,Calm,Calm,-,N/A,,Mist,0,2013-01-25 18:00:00